Location: D�nning
(49.2479°N, 12.8491°E)
Time: 05:46:42
(UTC+00:00)

Cosmos 1092 Rocket - Pass Details

Date: 18 September 2020
Orbit: 954 x 995 km, 82.9° (Epoch: 22 October)

Event Time Altitude Azimuth Distance (km) Brightness Sun altitude
Rises 19:48:34 0° 348° (NNW) 3,646 7.7 -24.4°
Reaches altitude 10° 19:51:05 10° 345° (NNW) 2,697 6.9 -24.8°
Maximum altitude 19:57:09 63° 266° (W) 1,071 4.3 -25.6°
Enters shadow 20:00:16 30° 196° (SSW) 1,668 5.0 -26.0°
